WetterOnline ( http://www.wetteronline.de )

Wetter aktuell Altmark

Aktuelles Wetter: Gardelegen (48m)

6-stündlich | Neueste Meldungen
Ortszeit Temperatur Wetter
Mi, 17.10. 20:00 11.2° C wolkig
Mi, 17.10. 14:00 20.4° C wolkenlos
Mi, 17.10. 8:00 7.1° C bedeckt
Mi, 17.10. 2:00 8.0° C wolkenlos
Di, 16.10. 20:00 12.7° C leicht bewölkt
Di, 16.10. 14:00 21.5° C wolkenlos
Di, 16.10. 8:00 7.1° C bedeckt
Di, 16.10. 2:00 5.8° C wolkenlos
Ortszeit Temperatur Wetter
Mi, 17.10. 20:30 10.5° C wolkig
Mi, 17.10. 20:20 10.5° C wolkig
Mi, 17.10. 20:10 11.2° C wolkig
Mi, 17.10. 20:00 11.2° C wolkig
Mi, 17.10. 19:50 11.2° C wolkig
Mi, 17.10. 19:40 11.9° C wolkig
Mi, 17.10. 19:30 12.5° C wolkig
Mi, 17.10. 19:00 13.9° C wolkig
Mi, 17.10. 18:30 16.0° C fast wolkenlos
Mi, 17.10. 18:00 18.5° C leicht bewölkt
Mi, 17.10. 17:30 20.4° C leicht bewölkt
Ortszeit Relative Feuchte Sichtweite
Mi, 17.10. 20:00 89% 11 km
Mi, 17.10. 14:00 56% 7 km
Mi, 17.10. 8:00 97% 4.0 km
Mi, 17.10. 2:00 93% 7 km
Di, 16.10. 20:00 80% 15 km
Di, 16.10. 14:00 38% 21 km
Di, 16.10. 8:00 88% 14 km
Di, 16.10. 2:00 96% 9 km
Ortszeit Relative Feuchte Sichtweite
Mi, 17.10. 20:30 92% 8 km
Mi, 17.10. 20:20 92% -
Mi, 17.10. 20:10 92% -
Mi, 17.10. 20:00 89% 11 km
Mi, 17.10. 19:50 89% -
Mi, 17.10. 19:40 88% -
Mi, 17.10. 19:30 88% 11 km
Mi, 17.10. 19:00 79% 12 km
Mi, 17.10. 18:30 72% 15 km
Mi, 17.10. 18:00 62% 7 km
Mi, 17.10. 17:30 55% 8 km
Ortszeit Niederschlagsmenge Niederschlagsart
Mi, 17.10. 20:00 0.0 l/m2 in 12 Std. -
Mi, 17.10. 14:00 0.0 l/m2 in 6 Std. -
Mi, 17.10. 8:00 0.0 l/m2 in 12 Std. -
Mi, 17.10. 2:00 0.0 l/m2 in 6 Std. -
Di, 16.10. 20:00 0.0 l/m2 in 12 Std. -
Di, 16.10. 14:00 0.0 l/m2 in 6 Std. -
Di, 16.10. 8:00 0.0 l/m2 in 12 Std. -
Di, 16.10. 2:00 0.0 l/m2 in 6 Std. -
Ortszeit Niederschlagsmenge Niederschlagsart
Mi, 17.10. 20:30 0.0 l/m2 in 1 Std. -
Mi, 17.10. 20:20 keine Meldung -
Mi, 17.10. 20:10 keine Meldung -
Mi, 17.10. 20:00 0.0 l/m2 in 1 Std. -
Mi, 17.10. 19:50 keine Meldung -
Mi, 17.10. 19:40 keine Meldung -
Mi, 17.10. 19:30 0.0 l/m2 in 1 Std. -
Mi, 17.10. 19:00 0.0 l/m2 in 1 Std. -
Mi, 17.10. 18:30 0.0 l/m2 in 1 Std. -
Mi, 17.10. 18:00 0.0 l/m2 in 1 Std. -
Mi, 17.10. 17:30 0.0 l/m2 in 1 Std. -
Ortszeit Stärke Spitze Richtung
km/h Bft. km/h Grad Sektor
Mi, 17.10. 20:00 0 0 11 - -
Mi, 17.10. 14:00 4 1 11 320° NW
Mi, 17.10. 8:00 4 1 7 150° SO
Mi, 17.10. 2:00 2 1 7 260° W
Di, 16.10. 20:00 0 0 14 - -
Di, 16.10. 14:00 6 1 13 20° N
Di, 16.10. 8:00 0 0 7 - -
Di, 16.10. 2:00 4 1 4 310° NW
Ortszeit Stärke Spitze Richtung
km/h Bft. km/h Grad Sektor
Mi, 17.10. 20:30 0 0 0 - -
Mi, 17.10. 20:20 0 0 - 190° S
Mi, 17.10. 20:10 0 0 - 160° S
Mi, 17.10. 20:00 0 0 4 - -
Mi, 17.10. 19:50 2 1 - 200° S
Mi, 17.10. 19:40 0 0 - 180° S
Mi, 17.10. 19:30 2 1 4 130° SO
Mi, 17.10. 19:00 4 1 4 140° SO
Mi, 17.10. 18:30 2 1 4 170° S
Mi, 17.10. 18:00 4 1 7 350° N
Mi, 17.10. 17:30 4 1 7 350° N
Ortszeit Untergrenze Bedeckung Gattung
total tief tief mittel hoch
Mi, 17.10. 20:00 9000 m 8/8 0/8 - - -
Mi, 17.10. 14:00 - 0/8 0/8 - - -
Mi, 17.10. 8:00 - 8/8 - - - -
Mi, 17.10. 2:00 - 0/8 0/8 - - -
Di, 16.10. 20:00 3300 m 3/8 3/8 - - -
Di, 16.10. 14:00 - 0/8 0/8 - - -
Di, 16.10. 8:00 4200 m 8/8 8/8 - - -
Di, 16.10. 2:00 - 0/8 0/8 - - -
Ortszeit Bedeckungsgrad in Achtel und Wolkenuntergrenze
Mi, 17.10. 20:30 8(9000m)
Mi, 17.10. 20:20 8(9000m)
Mi, 17.10. 20:10 7(9000m) 8(9000m)
Mi, 17.10. 20:00 6(9000m) 8(9000m)
Mi, 17.10. 19:50 6(9000m) 8(9000m)
Mi, 17.10. 19:40 7(9000m) 8(9000m)
Mi, 17.10. 19:30 2(8700m) 8(9000m) 8(9000m)
Mi, 17.10. 19:00 7(9000m) 7(9000m) 8(9000m)
Mi, 17.10. 18:30 2(9000m)
Mi, 17.10. 18:00 3(9000m)
Mi, 17.10. 17:30 1(2400m) 4(9000m)
Ortszeit Luftdruck NN (hPa) Tendenz (hPa in 3 Std.)
Mi, 17.10. 20:00 1019 + 0,7
Mi, 17.10. 14:00 1019 - 0,7
Mi, 17.10. 8:00 1020 + 0,4
Mi, 17.10. 2:00 1020 - 0,4
Di, 16.10. 20:00 1020 + 0,9
Di, 16.10. 14:00 1019 + 0,2
Di, 16.10. 8:00 1018 + 0,8
Di, 16.10. 2:00 1017 + 0,3
Ortszeit Luftdruck NN (hPa) Tendenz (hPa in 3 Std.)
Mi, 17.10. 20:30 1019 + 0,6
Mi, 17.10. 20:20 1019 keine Meldung
Mi, 17.10. 20:10 1019 keine Meldung
Mi, 17.10. 20:00 1019 + 0,7
Mi, 17.10. 19:50 1019 keine Meldung
Mi, 17.10. 19:40 1019 keine Meldung
Mi, 17.10. 19:30 1019 + 0,7
Mi, 17.10. 19:00 1019 + 0,3
Mi, 17.10. 18:30 1019 + 0,3
Mi, 17.10. 18:00 1019 - 0,2
Mi, 17.10. 17:30 1019 - 0,2
Ortszeit Schneehöhe (cm)
Mi, 17.10. 20:00 0
Mi, 17.10. 14:00 0
Mi, 17.10. 8:00 0
Mi, 17.10. 2:00 0
Di, 16.10. 20:00 0
Di, 16.10. 14:00 0
Di, 16.10. 8:00 0
Di, 16.10. 2:00 0
Ortszeit Schneehöhe (cm)
Mi, 17.10. 20:30 0
Mi, 17.10. 20:20 0
Mi, 17.10. 20:10 0
Mi, 17.10. 20:00 0
Mi, 17.10. 19:50 0
Mi, 17.10. 19:40 0
Mi, 17.10. 19:30 0
Mi, 17.10. 19:00 0
Mi, 17.10. 18:30 0
Mi, 17.10. 18:00 0
Mi, 17.10. 17:30 0
Link zu dieser Seite / Seite empfehlen

Das Wetter in ...